Tracking 29892 objects as of 21-Nov-2024
HD Live streaming from Space Station
objects crossing your sky now

CZ-2D DEB

Track CZ-2D DEB now!
10-day predictions


NORAD ID: 35275
Int'l Code: 2008-056E
Perigee: 706.0 km
Apogee: 895.1 km
Inclination: 98.8 °
Period: 100.7 minutes
Semi major axis: 7171 km
RCS: 0.0013 m2 (small)
Launch date: November 5, 2008
Source: People's Republic of China (PRC)
Launch site: Jiuquan Satellite Launch Center, China (JSC)

Note: This is SATELLITE DEBRIS
Your satellite tracking list
Your tracking list is empty




NASA's NSSDC Master Catalog

Two Line Element Set (TLE):
1 35275U 08056E   24325.04015771  .00002446  00000-0  88790-3 0  9993
2 35275  98.7587 358.3235 0131797 166.5309 193.9446 14.29499193826389
Source of the keplerian elements: AFSPC